Theta_e
316 317 318 319 319 319 319 319 319 318 318 317 316 316 316 316 318 320 322 321 322 322 320 319 319 321 323 324 325 325 330 331 330 330 330 329 329 327 330 335 336 338 338 341 346
318 316 316 316 316 317 317 318 318 319 318 317 317 316 316 316 323 325 322 319 320 321 321 320 322 322 326 326 326 327 330 330 328 328 329 328 328 328 328 332 334 336 339 343 346
318 318 318 316 315 314 314 315 316 318 318 318 317 316 316 316 326 327 323 320 321 321 322 323 324 326 328 327 327 327 327 327 327 327 328 328 328 328 328 329 329 329 331 344 345
316 315 315 317 317 315 313 313 313 315 317 318 317 317 316 318 323 321 324 320 320 321 322 323 325 327 328 327 326 326 326 327 326 326 327 328 328 328 329 329 328 328 332 342 345
317 316 316 317 316 316 315 313 312 312 314 317 318 317 318 321 321 317 323 318 320 321 325 325 325 326 328 328 328 327 327 326 326 326 326 326 326 327 328 328 328 328 328 337 341
313 316 316 318 318 318 316 314 312 311 311 315 317 317 319 321 316 317 322 321 322 323 325 324 325 326 327 326 326 326 325 325 325 326 327 327 326 326 327 327 328 328 329 331 335
307 308 311 314 317 318 319 317 314 311 310 312 317 316 319 321 317 318 321 323 322 323 324 324 324 327 325 326 325 325 326 325 328 328 327 327 328 327 327 327 328 328 329 330 331
303 304 305 308 312 316 319 320 318 314 310 311 315 318 320 318 317 317 318 319 321 323 323 324 324 326 326 326 326 327 327 327 328 329 327 327 328 330 330 330 330 330 330 330 331
304 303 302 303 306 312 317 320 320 317 311 311 318 319 319 317 318 318 318 319 319 321 323 322 325 327 327 327 326 328 325 328 330 328 329 329 331 330 330 330 330 331 331 331 330
304 303 303 302 302 306 315 319 320 317 314 316 317 318 317 318 318 318 321 318 320 321 324 326 327 328 327 327 324 323 326 326 327 329 328 329 330 330 329 329 330 330 331 331 331
304 303 303 302 301 302 316 322 319 319 316 312 317 316 317 318 318 320 321 322 320 323 325 326 327 327 324 326 325 326 327 327 326 327 327 330 330 329 328 328 329 329 329 329 330
303 303 302 301 301 303 318 319 318 318 321 316 315 316 316 316 315 318 320 324 324 324 324 326 327 325 324 325 326 327 327 327 325 327 328 329 328 329 327 328 328 328 329 329 330
302 301 301 300 302 315 318 310 312 317 323 321 318 317 317 316 314 314 319 323 325 325 324 326 324 325 326 326 327 327 328 326 324 323 323 324 327 327 328 328 327 328 328 328 329
301 301 300 300 309 308 313 308 317 318 319 326 319 320 317 317 318 316 315 320 325 325 324 325 323 324 325 325 326 326 325 324 323 323 322 328 324 327 326 328 327 329 330 331 331
301 301 301 301 306 309 306 308 316 313 332 323 320 318 318 319 321 318 315 318 322 326 325 325 326 326 327 325 325 324 324 323 324 325 327 326 329 326 326 328 328 328 330 331 331
300 300 300 305 307 305 305 312 312 322 325 323 318 319 320 319 319 318 317 317 319 322 326 326 325 325 325 324 324 324 325 326 328 330 332 326 328 323 325 326 328 327 329 330 331
298 299 303 305 306 304 305 311 319 320 316 315 321 318 320 320 320 318 319 320 319 322 324 325 326 325 324 325 325 326 327 327 329 331 329 327 328 327 325 327 328 326 329 330 330
298 299 300 304 303 301 308 312 319 312 316 317 317 318 320 320 319 318 317 319 320 320 319 323 324 325 324 324 324 325 326 325 324 323 324 327 328 325 326 327 327 327 328 329 328
299 301 301 302 299 304 305 311 314 312 314 315 315 316 319 319 319 319 319 317 319 320 322 320 321 321 324 324 323 325 326 325 325 325 327 325 325 326 327 326 327 327 328 328 325
300 299 300 301 303 305 304 301 303 306 313 314 316 316 316 316 318 319 319 318 317 318 321 321 322 320 321 322 323 324 323 325 325 326 326 324 324 325 324 326 327 328 328 329 324
299 301 300 301 304 304 305 301 300 300 302 307 312 317 317 318 318 319 318 318 318 318 320 320 323 322 320 322 322 324 325 324 324 324 324 324 323 325 326 326 328 328 327 324 324
300 301 300 301 304 302 304 300 298 299 301 302 303 310 315 317 318 319 319 319 318 319 320 321 323 325 321 320 320 322 324 325 324 325 324 325 328 326 328 327 328 327 323 322 325
301 300 300 301 304 304 302 301 300 299 299 300 302 304 304 308 316 319 318 317 318 320 320 322 323 325 322 321 322 322 322 322 324 326 324 330 326 326 326 328 327 325 321 323 325
299 302 301 302 303 302 303 302 302 300 300 299 299 301 304 305 310 315 317 315 315 316 318 321 323 324 325 323 321 322 322 322 323 327 326 325 324 325 327 327 326 322 323 324 325
298 301 301 301 301 301 302 301 302 302 301 301 301 300 300 301 306 308 307 310 312 317 319 321 323 322 321 320 321 321 322 322 323 324 325 324 323 322 324 327 326 323 325 325 323
300 301 301 301 301 301 302 302 301 301 302 303 303 302 302 303 301 302 302 304 312 313 314 321 324 321 322 321 321 321 321 320 321 323 323 323 323 323 324 325 322 323 324 324 323
297 294 298 301 301 301 302 301 300 301 301 301 301 302 303 304 304 304 305 306 309 310 309 314 321 326 327 323 322 325 323 321 321 321 322 324 324 324 324 322 322 324 323 323 321
Wind_Speed
6 7 8 11 12 13 15 15 16 17 19 21 23 23 24 23 11 3 5 2 6 10 6 7 4 3 4 1 3 3 5 6 5 3 3 7 8 4 3 5 4 5 5 5 14
5 6 7 8 11 13 14 15 17 18 20 22 22 24 25 21 2 3 2 4 8 12 11 9 5 4 3 2 2 5 5 3 2 3 3 5 6 7 4 4 8 6 4 6 15
7 7 7 7 9 11 13 14 16 18 20 22 24 24 23 17 5 3 5 7 10 12 4 5 5 4 6 4 3 1 7 1 5 7 9 9 8 4 7 8 3 5 5 12 15
8 8 8 7 9 10 12 14 14 16 19 20 23 26 20 6 2 2 3 12 13 6 7 6 5 5 5 6 2 8 6 9 8 10 9 11 12 12 11 12 5 4 2 11 16
8 10 12 11 10 11 11 12 14 15 16 19 21 22 11 6 2 2 3 11 13 7 7 6 7 6 8 3 5 10 9 8 10 11 14 16 18 17 15 14 12 9 7 11 14
5 7 9 11 12 12 12 12 13 14 14 16 18 20 6 9 2 2 5 11 9 9 7 7 3 3 7 7 7 4 10 14 14 15 18 16 17 6 13 15 13 14 15 14 15
6 7 8 10 13 15 14 13 12 13 13 13 14 12 7 11 1 1 5 7 8 7 7 6 5 6 1 6 3 8 13 13 9 3 4 6 14 13 15 7 11 12 15 16 13
8 8 9 10 11 15 15 14 13 13 12 11 11 4 8 9 7 10 11 13 8 9 6 4 4 5 7 2 8 9 9 8 7 4 2 4 10 2 10 9 14 14 13 15 19
9 10 10 11 12 14 15 16 13 14 12 10 4 2 9 6 9 7 14 12 12 11 7 4 5 5 5 10 10 8 10 6 6 2 2 2 13 13 14 13 16 17 16 15 16
10 11 11 13 14 13 14 14 14 13 4 3 3 5 8 4 5 6 3 10 9 11 8 10 8 10 9 10 11 6 9 8 9 2 8 15 16 15 18 19 16 17 18 17 16
10 12 13 13 14 14 12 5 5 5 6 8 2 5 0 6 4 1 2 6 12 14 15 14 12 16 16 14 13 10 13 14 12 13 13 11 15 17 16 14 15 14 15 15 13
9 12 13 14 14 9 5 2 7 7 9 11 17 15 18 8 8 10 3 7 10 17 18 10 19 20 14 12 14 13 14 17 13 5 5 13 19 19 7 5 4 7 8 9 8
10 13 14 14 8 6 6 10 10 8 7 7 13 14 14 15 13 20 10 5 13 17 16 22 13 8 14 16 15 16 17 16 15 11 16 16 18 8 4 3 1 3 3 2 3
10 11 14 12 6 7 3 15 5 2 3 6 7 8 12 11 13 26 22 13 12 17 20 18 20 13 9 13 15 17 12 14 14 8 7 3 6 8 5 5 3 1 3 4 4
8 9 12 15 3 4 11 17 1 2 3 5 7 1 4 16 5 14 29 17 22 16 10 21 15 20 20 20 12 14 5 9 10 12 10 15 7 8 6 10 7 5 5 5 5
7 8 8 6 6 5 14 3 1 4 9 7 5 11 11 19 19 3 12 19 19 21 17 23 7 13 18 16 17 3 8 6 7 9 11 17 13 10 12 14 9 8 5 5 4
5 6 6 3 1 8 7 2 3 6 1 8 9 10 15 12 15 19 15 18 17 18 22 26 24 17 9 10 7 15 11 5 8 8 11 1 10 14 4 6 12 9 7 6 5
3 3 2 1 2 4 1 1 9 8 15 5 4 10 18 12 15 18 16 19 25 26 18 24 22 27 19 26 14 20 17 10 11 12 12 5 8 6 13 12 9 6 7 9 8
0 2 3 2 2 1 3 7 6 6 4 8 13 15 16 19 15 14 23 23 26 27 28 21 28 21 21 26 23 14 17 25 19 19 10 13 15 12 12 9 13 11 9 11 7
3 1 4 4 7 5 4 10 9 6 4 6 11 8 14 17 17 13 14 13 25 26 26 25 25 22 18 15 23 28 10 10 12 14 18 13 18 13 15 17 19 16 11 9 6
5 3 3 10 10 5 7 9 10 11 7 7 11 13 13 11 10 15 26 23 20 21 24 20 21 25 14 17 25 14 19 13 12 14 14 16 14 11 18 15 20 16 12 8 6
5 3 7 17 7 5 11 7 7 14 8 8 11 15 15 13 10 9 9 20 11 22 24 19 12 19 29 17 19 23 27 28 12 18 9 14 17 2 9 13 10 16 12 7 6
3 4 6 19 8 12 11 12 16 15 15 10 13 12 15 21 9 13 15 17 22 25 16 16 11 13 25 23 18 14 26 23 24 14 14 14 15 4 5 9 12 17 11 8 6
3 4 5 5 11 15 16 20 21 13 19 23 19 15 17 20 16 12 15 9 22 30 28 10 11 16 18 26 22 17 23 26 23 12 19 19 23 13 8 10 14 13 11 10 8
4 6 8 7 12 20 19 14 18 22 16 14 15 22 22 22 20 24 24 27 23 21 16 8 15 16 22 32 30 27 25 26 23 27 23 23 24 21 14 12 17 12 13 13 11
3 3 6 14 15 21 22 25 26 24 19 15 21 21 16 17 21 24 23 20 15 17 15 12 5 20 26 29 28 28 24 26 28 29 27 28 24 18 9 8 13 14 14 11 9
9 4 2 11 21 15 22 27 28 24 23 24 23 20 18 15 17 19 19 14 16 17 20 12 4 6 26 29 22 17 31 28 24 21 21 21 23 17 12 13 14 11 9 8 8
Wind_Direction
330 332 335 336 338 340 343 343 345 347 349 348 346 348 347 341 342 152 201 159 181 172 155 160 206 211 237 229 296 280 240 194 162 222 32 15 351 76 303 245 203 184 262 95 145
333 330 324 327 332 335 337 339 340 341 344 344 344 344 343 337 314 173 223 219 192 168 156 179 191 215 235 252 227 266 258 184 58 334 292 316 330 345 283 190 210 216 171 172 163
312 306 326 329 326 329 328 331 334 336 340 342 343 342 342 331 249 89 329 178 168 169 177 158 164 252 269 265 189 203 273 351 270 283 298 297 293 299 279 245 248 264 265 187 191
340 338 312 309 322 322 323 325 329 333 334 339 343 343 340 312 281 56 11 168 166 187 166 181 211 235 256 253 237 265 256 276 296 301 268 279 308 281 269 276 312 310 276 192 204
306 323 331 333 314 309 315 320 324 326 331 334 340 349 359 295 285 340 104 168 173 184 225 208 233 248 260 263 252 254 286 288 281 269 269 284 274 276 271 265 274 268 243 219 222
293 294 311 318 319 307 302 309 317 324 326 329 336 345 332 278 356 324 150 166 185 199 211 217 258 287 289 268 256 339 291 285 281 278 274 263 269 265 259 262 259 248 247 236 231
337 329 314 312 309 307 296 298 308 316 320 323 330 345 286 267 263 319 175 201 207 208 216 216 231 238 339 257 306 288 284 284 261 275 241 288 251 230 259 275 274 250 242 245 247
358 340 327 319 316 312 301 293 300 308 310 314 320 318 272 272 270 269 251 238 219 222 230 175 210 255 244 298 254 276 278 278 140 297 141 236 276 322 257 263 259 261 252 253 254
2 0 349 336 321 317 316 304 298 297 297 301 291 267 272 292 266 284 235 236 217 213 205 178 220 246 215 253 272 196 281 272 295 267 255 278 299 287 295 258 262 269 266 261 255
1 353 352 351 343 324 318 315 299 288 275 254 246 258 234 280 329 311 276 223 210 187 200 212 218 232 226 234 255 299 273 259 275 171 282 291 274 276 277 268 256 265 273 267 261
357 354 347 347 343 343 348 330 238 199 205 236 195 271 326 335 295 88 284 203 212 202 208 205 224 229 234 230 262 275 274 277 283 288 294 271 285 290 288 279 266 257 263 264 251
358 355 345 347 340 358 23 24 70 350 293 248 256 258 269 292 281 254 195 220 204 216 214 196 232 243 250 237 241 241 261 273 284 279 261 287 297 292 294 273 259 279 272 266 266
5 358 354 345 358 47 60 17 317 330 261 259 239 247 238 216 241 247 210 232 233 233 212 228 239 252 212 228 238 239 247 264 270 297 276 281 278 221 192 233 250 235 268 277 325
12 5 2 0 67 1 68 347 316 282 299 244 216 242 212 220 248 233 222 227 226 241 227 244 243 203 208 235 228 244 237 251 270 267 264 234 279 243 229 199 202 113 113 92 71
13 11 24 39 11 40 323 330 26 184 267 163 204 127 195 199 264 207 211 213 228 220 212 228 225 229 232 238 218 233 223 240 256 258 273 236 249 263 211 213 177 114 104 100 71
11 10 33 42 50 355 336 103 317 186 232 232 227 209 188 212 232 189 194 227 229 231 229 252 218 233 238 241 217 286 211 226 236 249 242 251 229 241 234 224 183 143 125 123 92
9 21 53 52 39 351 3 359 175 216 110 224 216 208 219 215 231 224 196 193 202 207 228 235 230 222 223 201 189 205 200 232 228 214 253 344 235 241 266 212 183 152 134 131 109
354 15 358 150 322 342 64 190 222 228 220 55 3 274 238 220 233 217 224 218 216 222 238 230 234 222 213 225 202 207 207 231 249 249 259 150 235 234 243 213 201 162 141 142 125
75 11 283 240 191 232 206 209 229 245 293 292 290 274 264 237 252 225 221 223 217 216 231 242 236 243 214 221 221 206 223 236 264 265 269 261 246 267 241 209 194 181 168 157 135
137 99 246 199 175 185 216 238 229 255 331 310 267 264 274 260 241 229 230 234 235 227 221 244 257 250 223 229 222 228 251 215 216 243 239 245 248 248 226 215 196 184 185 177 140
165 213 149 171 161 201 223 234 252 260 267 249 263 279 278 284 294 284 242 253 249 232 231 218 240 258 232 206 215 208 226 228 236 231 244 257 264 219 243 232 199 182 173 166 126
178 222 158 166 186 218 232 240 256 253 253 259 260 264 256 278 276 280 273 260 257 239 231 216 208 252 241 231 237 218 214 212 220 213 232 258 263 171 241 246 205 174 154 150 128
197 214 173 186 220 221 236 250 249 249 246 240 240 233 252 254 274 265 279 278 295 304 257 220 215 223 250 260 221 236 228 237 227 253 249 236 253 190 166 195 178 160 150 145 108
177 207 195 212 238 239 236 246 248 250 257 253 256 265 262 255 243 265 274 307 324 307 303 304 212 203 225 240 235 221 231 225 225 224 233 237 247 222 197 185 176 162 159 149 142
192 225 217 206 221 236 240 245 246 241 246 274 244 245 251 260 259 263 269 273 290 314 295 289 252 212 224 240 260 268 233 228 227 222 227 238 245 252 248 210 185 169 158 157 160
198 204 226 247 231 219 229 240 249 249 243 245 234 256 266 253 258 270 281 293 259 322 330 320 274 228 236 242 243 255 259 257 235 233 240 247 256 261 248 162 167 175 172 156 124
208 176 321 241 232 222 221 231 240 243 248 250 257 269 269 265 281 286 289 304 285 269 285 297 245 270 236 230 246 249 236 246 247 236 245 244 245 249 205 211 193 164 147 145 145